| time (UTC) | temp C | wind direction | speed KPH | gust KPH | rain 1hr cm | rain 24hr cm | rain mn cm | humidity % | barometer mb |
| 20260507103427 | 24 | 151 | 8.0 | 24.1 | 0.00 | 0.00 | 0.00 | 32 | 1011.2 |
| 20260507102427 | 23 | 123 | 9.7 | 24.1 | 0.00 | 0.00 | 0.00 | 32 | 1011.2 |
| 20260507101428 | 24 | 127 | 9.7 | 24.1 | 0.00 | 0.00 | 0.00 | 32 | 1011.1 |
| 20260507100429 | 24 | 216 | 9.7 | 24.1 | 0.00 | 0.00 | 0.00 | 32 | 1011.3 |
| 20260507094429 | 23 | 159 | 20.9 | 40.2 | 0.00 | 0.00 | 0.00 | 31 | 1012.0 |
| 20260507093427 | 23 | 186 | 16.1 | 49.9 | 0.00 | 0.00 | 0.00 | 32 | 1011.8 |
| 20260507092427 | 23 | 209 | 17.7 | 57.9 | 0.00 | 0.00 | 0.00 | 33 | 1011.8 |
| 20260507091434 | 23 | 182 | 9.7 | 27.4 | 0.00 | 0.00 | 0.00 | 36 | 1011.7 |
| 20260507090643 | 23 | 167 | 9.7 | 27.4 | 0.00 | 0.00 | 0.00 | 36 | 1011.7 |
| 20260507085428 | 23 | 205 | 14.5 | 27.4 | 0.00 | 0.00 | 0.00 | 38 | 1011.8 |
| 20260507084427 | 23 | 175 | 14.5 | 32.2 | 0.00 | 0.00 | 0.00 | 39 | 1012.1 |
| 20260507083427 | 22 | 167 | 14.5 | 37.0 | 0.00 | 0.00 | 0.00 | 41 | 1012.0 |
| 20260507082427 | 22 | 198 | 9.7 | 30.6 | 0.00 | 0.00 | 0.00 | 43 | 1012.0 |
| 20260507080428 | 22 | 184 | 9.7 | 20.9 | 0.00 | 0.00 | 0.00 | 44 | 1012.0 |
| 20260507074429 | 22 | 137 | 6.4 | 16.1 | 0.00 | 0.00 | 0.00 | 47 | 1012.4 |
| 20260507073428 | 21 | 130 | 3.2 | 11.3 | 0.00 | 0.00 | 0.00 | 50 | 1012.7 |
| 20260507072429 | 21 | 83 | 1.6 | 4.8 | 0.00 | 0.00 | 0.00 | 51 | 1012.8 |
| 20260507070427 | 20 | 107 | 1.6 | 6.4 | 0.00 | 0.00 | 0.00 | 52 | 1012.9 |
| 20260507065424 | 20 | 128 | 8.0 | 16.1 | 0.00 | 0.00 | 0.00 | 52 | 1012.9 |
| 20260507064425 | 20 | 117 | 8.0 | 16.1 | 0.00 | 0.00 | 0.00 | 52 | 1012.9 |
| 20260507063425 | 20 | 130 | 6.4 | 19.3 | 0.00 | 0.00 | 0.00 | 54 | 1012.9 |
| 20260507062423 | 20 | 135 | 6.4 | 12.9 | 0.00 | 0.00 | 0.00 | 54 | 1013.1 |
| 20260507061423 | 20 | 121 | 12.9 | 22.5 | 0.00 | 0.00 | 0.00 | 53 | 1013.0 |
| 20260507060423 | 19 | 139 | 8.0 | 19.3 | 0.00 | 0.00 | 0.00 | 52 | 1012.9 |
| 20260507054423 | 19 | 279 | 3.2 | 9.7 | 0.00 | 0.00 | 0.00 | 47 | 1013.0 |
| 20260507052425 | 19 | 53 | 3.2 | 6.4 | 0.00 | 0.00 | 0.00 | 43 | 1012.9 |
| 20260507051425 | 20 | 267 | 0.0 | 3.2 | 0.00 | 0.00 | 0.00 | 41 | 1013.0 |
| 20260507050421 | 20 | 267 | 1.6 | 4.8 | 0.00 | 0.00 | 0.00 | 41 | 1013.0 |
| 20260507045422 | 20 | 101 | 11.3 | 19.3 | 0.00 | 0.00 | 0.00 | 39 | 1012.9 |
| 20260507044421 | 20 | 138 | 11.3 | 17.7 | 0.00 | 0.00 | 0.00 | 37 | 1012.9 |
| 20260507043420 | 20 | 140 | 14.5 | 22.5 | 0.00 | 0.00 | 0.00 | 36 | 1012.9 |
| 20260507042423 | 20 | 108 | 11.3 | 19.3 | 0.00 | 0.00 | 0.00 | 37 | 1012.7 |
| 20260507041423 | 18 | 181 | 4.8 | 14.5 | 0.00 | 0.00 | 0.00 | 44 | 1013.0 |
| 20260507040421 | 19 | 186 | 3.2 | 8.0 | 0.00 | 0.00 | 0.00 | 45 | 1013.0 |
| 20260507035421 | 20 | 301 | 3.2 | 12.9 | 0.00 | 0.00 | 0.00 | 45 | 1013.0 |
| 20260507033421 | 19 | 126 | 8.0 | 17.7 | 0.00 | 0.00 | 0.00 | 41 | 1013.0 |
| 20260507032414 | 18 | 118 | 9.7 | 16.1 | 0.00 | 0.00 | 0.00 | 44 | 1012.8 |
| 20260507031414 | 18 | 126 | 8.0 | 16.1 | 0.00 | 0.00 | 0.00 | 48 | 1012.9 |
| 20260507030414 | 18 | 88 | 4.8 | 12.9 | 0.00 | 0.00 | 0.00 | 51 | 1013.0 |
| 20260507025414 | 18 | 149 | 8.0 | 16.1 | 0.00 | 0.00 | 0.00 | 50 | 1013.0 |
| 20260507024416 | 18 | 157 | 4.8 | 11.3 | 0.00 | 0.00 | 0.00 | 49 | 1013.0 |
| 20260507023414 | 19 | 192 | 3.2 | 6.4 | 0.00 | 0.00 | 0.00 | 48 | 1013.2 |
| 20260507022414 | 19 | 315 | 1.6 | 6.4 | 0.00 | 0.00 | 0.00 | 47 | 1013.0 |
| 20260507021421 | 19 | 324 | 1.6 | 4.8 | 0.00 | 0.00 | 0.00 | 46 | 1013.1 |
| 20260507020418 | 19 | 324 | 6.4 | 9.7 | 0.00 | 0.00 | 0.00 | 46 | 1013.0 |
| 20260507014419 | 19 | 86 | 1.6 | 4.8 | 0.00 | 0.00 | 0.00 | 48 | 1013.0 |
| 20260507012411 | 20 | 128 | 3.2 | 6.4 | 0.00 | 0.00 | 0.00 | 46 | 1012.8 |
| 20260507011412 | 20 | 329 | 3.2 | 8.0 | 0.00 | 0.00 | 0.00 | 45 | 1012.9 |
| 20260507010412 | 19 | 344 | 4.8 | 9.7 | 0.00 | 0.00 | 0.00 | 47 | 1013.1 |
| 20260507004408 | 19 | 5 | 1.6 | 4.8 | 0.00 | 0.00 | 0.00 | 50 | 1012.9 |
| 20260507003408 | 19 | 5 | 1.6 | 3.2 | 0.00 | 0.00 | 0.00 | 47 | 1012.9 |
| 20260507002414 | 19 | 59 | 4.8 | 8.0 | 0.00 | 0.00 | 0.00 | 47 | 1013.0 |
| 20260507001407 | 20 | 344 | 6.4 | 8.0 | 0.00 | 0.00 | 0.00 | 47 | 1012.9 |
| 20260507000408 | 20 | 340 | 3.2 | 8.0 | 0.00 | 0.00 | 0.00 | 45 | 1013.2 |
| 20260506234407 | 20 | 134 | 1.6 | 11.3 | 0.00 | 0.00 | 0.00 | 43 | 1013.3 |
| 20260506233407 | 20 | 9 | 1.6 | 6.4 | 0.00 | 0.00 | 0.00 | 46 | 1013.4 |
| 20260506232409 | 20 | 29 | 1.6 | 8.0 | 0.00 | 0.00 | 0.00 | 43 | 1013.5 |
| 20260506231409 | 20 | 279 | 4.8 | 16.1 | 0.00 | 0.00 | 0.00 | 44 | 1013.5 |
| 20260506230408 | 20 | 163 | 9.7 | 25.7 | 0.00 | 0.00 | 0.00 | 45 | 1013.3 |
| 20260506225407 | 20 | 176 | 11.3 | 22.5 | 0.00 | 0.00 | 0.00 | 46 | 1013.2 |
| 20260506222406 | 19 | 169 | 6.4 | 30.6 | 0.00 | 0.00 | 0.00 | 49 | 1013.3 |
| 20260506221405 | 19 | 60 | 1.6 | 6.4 | 0.00 | 0.00 | 0.00 | 52 | 1013.2 |
| 20260506220405 | 19 | 198 | 4.8 | 12.9 | 0.00 | 0.00 | 0.00 | 52 | 1013.2 |
| 20260506215407 | 19 | 161 | 0.0 | 3.2 | 0.00 | 0.00 | 0.00 | 53 | 1013.0 |
| 20260506214404 | 18 | 265 | 3.2 | 6.4 | 0.00 | 0.00 | 0.00 | 52 | 1012.9 |
| 20260506213403 | 18 | 237 | 6.4 | 9.7 | 0.00 | 0.00 | 0.00 | 53 | 1013.3 |
| 20260506212403 | 18 | 174 | 11.3 | 17.7 | 0.00 | 0.00 | 0.00 | 53 | 1013.0 |
| 20260506211404 | 18 | 257 | 6.4 | 16.1 | 0.00 | 0.00 | 0.00 | 53 | 1012.7 |
| 20260506210403 | 18 | 150 | 4.8 | 12.9 | 0.00 | 0.00 | 0.00 | 54 | 1012.2 |
| 20260506205406 | 18 | 158 | 6.4 | 11.3 | 0.00 | 0.00 | 0.00 | 53 | 1012.3 |
| 20260506204402 | 18 | 255 | 1.6 | 12.9 | 0.00 | 0.00 | 0.00 | 56 | 1012.7 |
| 20260506203405 | 18 | 286 | 6.4 | 14.5 | 0.00 | 0.00 | 0.00 | 57 | 1013.0 |
| 20260506202401 | 18 | 335 | 0.0 | 8.0 | 0.00 | 0.00 | 0.00 | 60 | 1012.8 |
| 20260506201400 | 18 | 157 | 0.0 | 1.6 | 0.00 | 0.00 | 0.00 | 60 | 1013.0 |
| 20260506200400 | 18 | 157 | 1.6 | 4.8 | 0.00 | 0.00 | 0.00 | 59 | 1013.4 |
| 20260506195401 | 19 | 157 | 1.6 | 4.8 | 0.00 | 0.00 | 0.00 | 62 | 1013.5 |
| 20260506193400 | 19 | 157 | 1.6 | 4.8 | 0.00 | 0.00 | 0.00 | 63 | 1013.7 |
| 20260506192401 | 19 | 157 | 3.2 | 8.0 | 0.00 | 0.00 | 0.00 | 63 | 1013.3 |
| 20260506190402 | 20 | 175 | 3.2 | 6.4 | 0.00 | 0.00 | 0.00 | 55 | 1013.7 |
| 20260506185401 | 20 | 251 | 4.8 | 11.3 | 0.00 | 0.00 | 0.00 | 53 | 1013.8 |
| 20260506183401 | 20 | 227 | 12.9 | 19.3 | 0.00 | 0.00 | 0.00 | 54 | 1013.7 |
| 20260506182359 | 20 | 256 | 12.9 | 22.5 | 0.00 | 0.00 | 0.00 | 54 | 1013.8 |
| 20260506180356 | 20 | 269 | 6.4 | 11.3 | 0.00 | 0.00 | 0.00 | 64 | 1013.8 |
| 20260506175356 | 20 | 290 | 4.8 | 9.7 | 0.00 | 0.00 | 0.00 | 65 | 1013.6 |
| 20260506174358 | 20 | 287 | 4.8 | 9.7 | 0.00 | 0.00 | 0.00 | 65 | 1013.7 |
| 20260506173355 | 20 | 314 | 6.4 | 12.9 | 0.00 | 0.00 | 0.00 | 64 | 1013.4 |
| 20260506172356 | 20 | 275 | 6.4 | 11.3 | 0.00 | 0.00 | 0.00 | 64 | 1013.3 |
| 20260506171400 | 20 | 277 | 9.7 | 14.5 | 0.00 | 0.00 | 0.00 | 64 | 1013.5 |
| 20260506165356 | 20 | 280 | 9.7 | 16.1 | 0.00 | 0.00 | 0.00 | 65 | 1013.7 |
| 20260506163353 | 20 | 294 | 14.5 | 22.5 | 0.00 | 0.00 | 0.00 | 67 | 1013.9 |
| 20260506162353 | 20 | 298 | 17.7 | 24.1 | 0.00 | 0.00 | 0.00 | 67 | 1013.7 |
| 20260506160355 | 21 | 283 | 19.3 | 29.0 | 0.00 | 0.00 | 0.00 | 73 | 1013.8 |
| 20260506155352 | 21 | 269 | 19.3 | 25.7 | 0.00 | 0.00 | 0.00 | 73 | 1013.8 |
| 20260506153350 | 23 | 266 | 14.5 | 33.8 | 0.00 | 0.00 | 0.00 | 55 | 1013.5 |
| 20260506152354 | 24 | 202 | 11.3 | 24.1 | 0.00 | 0.00 | 0.00 | 48 | 1013.3 |
| 20260506151350 | 24 | 208 | 8.0 | 19.3 | 0.00 | 0.00 | 0.00 | 42 | 1013.3 |
| 20260506150350 | 24 | 192 | 11.3 | 22.5 | 0.00 | 0.00 | 0.00 | 46 | 1013.2 |
| 20260506145354 | 24 | 272 | 20.9 | 30.6 | 0.00 | 0.00 | 0.00 | 47 | 1013.2 |
| 20260506144349 | 25 | 261 | 16.1 | 35.4 | 0.00 | 0.00 | 0.00 | 45 | 1013.1 |
| 20260506143342 | 25 | 236 | 17.7 | 38.6 | 0.00 | 0.00 | 0.00 | 46 | 1013.2 |
| 20260506141342 | 25 | 236 | 11.3 | 20.9 | 0.00 | 0.00 | 0.00 | 44 | 1012.9 |
| 20260506140342 | 25 | 237 | 16.1 | 24.1 | 0.00 | 0.00 | 0.00 | 44 | 1012.7 |
| 20260506135341 | 26 | 217 | 16.1 | 27.4 | 0.00 | 0.00 | 0.00 | 42 | 1012.6 |
| 20260506134342 | 27 | 279 | 9.7 | 25.7 | 0.00 | 0.00 | 0.00 | 39 | 1012.8 |
| 20260506132340 | 27 | 24 | 4.8 | 12.9 | 0.00 | 0.00 | 0.00 | 38 | 1012.8 |
| 20260506131344 | 27 | 223 | 11.3 | 27.4 | 0.00 | 0.00 | 0.00 | 38 | 1012.9 |
| 20260506130339 | 27 | 202 | 14.5 | 27.4 | 0.00 | 0.00 | 0.00 | 39 | 1013.1 |
| 20260506125339 | 27 | 254 | 14.5 | 27.4 | 0.00 | 0.00 | 0.00 | 41 | 1013.2 |
| 20260506123340 | 26 | 282 | 6.4 | 17.7 | 0.00 | 0.00 | 0.00 | 48 | 1013.5 |
| 20260506122341 | 26 | 54 | 11.3 | 22.5 | 0.00 | 0.00 | 0.00 | 47 | 1013.4 |
| 20260506121341 | 25 | 60 | 9.7 | 20.9 | 0.00 | 0.00 | 0.00 | 49 | 1013.3 |
| 20260506115336 | 25 | 41 | 11.3 | 20.9 | 0.00 | 0.00 | 0.00 | 53 | 1013.5 |
| 20260506114340 | 25 | 56 | 12.9 | 24.1 | 0.00 | 0.00 | 0.00 | 54 | 1013.7 |
| 20260506113342 | 25 | 80 | 14.5 | 24.1 | 0.00 | 0.00 | 0.00 | 52 | 1013.9 |
| 20260506110336 | 25 | 39 | 11.3 | 20.9 | 0.00 | 0.00 | 0.00 | 53 | 1014.2 |
| 20260506105334 | 25 | 78 | 9.7 | 17.7 | 0.00 | 0.00 | 0.00 | 51 | 1014.2 |
| 20260506104333 | 25 | 19 | 9.7 | 19.3 | 0.00 | 0.00 | 0.00 | 50 | 1014.5 |